LogoCoinalyze
    Ad-Free Version Hauptseite Märkte Finanzierungsraten
    Futures-Daten
    • Aggregierte Daten (Coins)
    • Einzelne Charts
    • Globale Charts
    Preisalarme
    TA
    Bitcoin Ethereum BNB Ripple Tron ZCash Dogecoin Monero UNUS SED LEO Chainlink Cardano Stellar Lumens Bitcoin Cash Litecoin Hedera Cronos Polkadot Ethereum Classic Algorand Quant Cosmos VeChain Dash Bitcoin SV BitTorrent Terra Decred Tezos Iota The Graph THETA Decentraland Chiliz NEO MultiversX Golem Basic Attention Token Horizen Qtum 0x DigiByte Beam RIF Token FTX Token Holo FUNToken Zilliqa Ontology Nano aelf Enjin Coin Ravencoin Siacoin Mask Network Verge Status WINk Waves IoTeX iExec RLC Power Ledger Steem Kyber Network Crystal Lisk Ark Ardor WOO Network IOST WAX Icon Storj Loopring Wanchain Bitcoin Diamond AdEx Bitcoin Gold Augur OmiseGO NEM MonaCoin BitShares Ren Komodo V Systems Nuls Mithril SOLVE EOS Aion Maker Nebulas HedgeTrade Bread Fetch.ai TomoChain Polygon Fantom Waltonchain GXChain Bytom Metaverse ETP MaidSafeCoin QASH
    Bestellen nach:
    Mehr
    • API
    • Kerzenformationen
    • Spenden
    • Kontakt
    • Sitemap
    • Privacy Policy
    • Disclaimer
    • Theme:
    Deutsch
    • English
    • Français
    • Русский
    • Türkçe
    • Nederlands
    • Português (BR)
    • Español
    • 한국어
    • 简体中文
    • 日本語
     
    Anmelden / Registrieren
    Markets/ Pepe/ PEPE zu FDUSD/ PEPEFDUSD Binance
    Trades
    WL
    Chat
    Stat
    Neuigkeiten
    ⦷
    AAA
    0.00000339 294986.00000000 17:47:46
    0.00000339 294986.00000000 17:47:46
    0.00000339 294986.00000000 17:47:46
    0.00000339 294986.00000000 17:47:46
    0.00000339 690868.00000000 17:47:46
    0.00000339 294986.00000000 17:47:46
    0.00000339 2597752.00000000 17:44:52
    0.00000339 62599693.00000000 17:44:49
    0.00000338 11028940.00000000 17:24:02
    0.00000337 296736.00000000 17:21:24
    0.00000337 296736.00000000 17:21:24
    0.00000337 296736.00000000 17:21:24
    0.00000337 296736.00000000 17:21:24
    0.00000337 40288746.00000000 17:21:24
    0.00000337 296736.00000000 17:21:24
    0.00000338 2597752.00000000 17:21:23
    0.00000337 83068955.00000000 17:21:21
    0.00000338 2589991.00000000 17:17:42
    0.00000338 55221302.00000000 17:17:41
    0.00000339 6411336.00000000 17:15:19
    0.00000339 6445169.00000000 17:15:18
    0.00000339 8613146.00000000 17:11:19
    0.00000339 601457.00000000 17:09:22
    0.00000339 65854973.00000000 16:57:30
    0.00000340 2582200.00000000 16:57:13
    0.00000339 294986.00000000 16:57:10
    0.00000339 294986.00000000 16:57:10
    0.00000339 294986.00000000 16:57:10
    0.00000339 294986.00000000 16:57:10
    0.00000339 294986.00000000 16:57:10
    0.00000339 21717351.00000000 16:57:10
    0.00000340 7102770.00000000 16:43:02
    0.00000340 500737.00000000 16:42:16
    0.00000340 2574531.00000000 16:41:40
    0.00000340 7398179.00000000 16:41:37
    0.00000341 28042666.00000000 16:36:32
    0.00000341 350904.00000000 16:10:50
    0.00000342 10280635.00000000 16:08:32
    0.00000341 22646992.00000000 16:06:09
    0.00000341 293256.00000000 16:06:09
    0.00000341 293256.00000000 16:06:09
    0.00000341 293256.00000000 16:06:09
    0.00000341 293256.00000000 16:06:09
    0.00000341 293256.00000000 16:06:09
    0.00000341 293256.00000000 16:03:34
    0.00000341 293256.00000000 16:03:34
    0.00000341 293256.00000000 16:03:34
    0.00000341 293256.00000000 16:03:34
    0.00000341 293256.00000000 16:03:34
    0.00000341 40974143.00000000 16:03:34
    0.00000341 22631641.00000000 16:01:27
    0.00000341 293256.00000000 16:01:27
    0.00000341 293256.00000000 16:01:26
    0.00000341 293256.00000000 16:01:26
    0.00000341 293256.00000000 16:01:26
    0.00000341 293256.00000000 16:01:26
    0.00000341 26086716.00000000 16:00:46
    0.00000341 293256.00000000 16:00:46
    0.00000341 293256.00000000 16:00:46
    0.00000341 293256.00000000 16:00:46
    0.00000341 293256.00000000 16:00:46
    0.00000341 293256.00000000 16:00:46
    0.00000341 293256.00000000 16:00:29
    0.00000341 293256.00000000 16:00:29
    0.00000341 41516310.00000000 16:00:29
    0.00000341 293256.00000000 16:00:29
    0.00000341 293256.00000000 16:00:29
    0.00000341 293256.00000000 16:00:29
    0.00000341 293256.00000000 15:57:58
    0.00000341 293256.00000000 15:57:58
    0.00000341 293256.00000000 15:57:58
    0.00000341 293256.00000000 15:57:58
    0.00000341 41559295.00000000 15:57:58
    0.00000341 293256.00000000 15:57:58
    0.00000341 293256.00000000 15:57:32
    0.00000341 293256.00000000 15:57:32
    0.00000341 293256.00000000 15:57:31
    0.00000341 293256.00000000 15:57:31
    0.00000341 41567951.00000000 15:57:31
    0.00000341 293256.00000000 15:57:31
    0.00000341 293256.00000000 15:57:16
    0.00000341 41567951.00000000 15:57:16
    0.00000341 293256.00000000 15:57:16
    0.00000341 293256.00000000 15:57:16
    0.00000341 293256.00000000 15:57:16
    0.00000341 293256.00000000 15:57:16
    0.00000341 293256.00000000 15:54:32
    0.00000341 293256.00000000 15:54:32
    0.00000341 293256.00000000 15:54:32
    0.00000341 41575612.00000000 15:54:32
    0.00000341 293256.00000000 15:54:32
    0.00000341 293256.00000000 15:54:32
    0.00000341 293256.00000000 15:54:11
    0.00000341 293256.00000000 15:54:11
    0.00000341 293256.00000000 15:54:11
    0.00000341 293256.00000000 15:54:11
    0.00000341 293256.00000000 15:54:11
    0.00000341 23224112.00000000 15:54:11
    0.00000341 117725995.00000000 15:53:17
    0.00000341 42115809.00000000 15:50:28
    Abmelden
    AAA
    Hilfe
    🙂 🤣 😎 🤗 😛 😉 😜 🤑 🤔 😑 😴 😕 🙃 😲 😇 🙁 😢 😬 😟 😠 🕺 🏃 💪 ✌ 👌 👍 👎 👏 👋 🤝 🍺 🍻 🐋 🐟 🦈 🗽 🚄 ✈ 🛑 🚀 🏦 🌚 ⭐ 🌞 ⚡ 🏆 💰 💲 🔨 ❓ ❗ 💯 🔶 🏁
    ☺
    Anmelden oder Registrieren zum Chatten
    24 Stunden
    Veränderung
    -3.14%
    Volumen
    18,527,534,326
    Hoch
    0.00000351
    Tief
    0.00000337
    7 Tage
    Veränderung
    -11.26%
    Volumen
    218,301,838,218
    Hoch
    0.00000401
    Tief
    0.00000337
    30 Tage
    Veränderung
    +16.90%
    Volumen
    1,398,080,982,648
    Hoch
    0.00000456
    Tief
    0.00000254
    Pepe price rallies 25% as whale demand and futures interest surge
    Key takeaways Pepe has gained 25% this week, including a combined 22% advance over the previous two days. Seven whale transactions worth more than $1 million each occurred Thursday, the highest...
    coinjournal.net
    Aug 21, 2026 08:41
    PEPE Supply on Exchanges Just Took a Massive Hit – What’s Next?
    A drop in PEPE exchange balances has added to bullish expectations despite muted trader interest.
    cryptopotato.com
    Aug 6, 2026 20:02
    PEPE Exchange Outflows Hit Nearly 2-Year High as Whales Accumulate
    Pepe (PEPE) recorded its largest single-day exchange outflow since November 2024, with 4.54 trillion tokens leaving trading platforms, signaling that holders are moving supply away from immediate...
    beincrypto.com
    Aug 6, 2026 04:57
    Meme Coin Based on White House Shooter Conspiracy Rallies 320%
    $HENRY surged 300% after a 2023 Pepe tweet appeared to name the White House shooter, fueling a viral time-travel meme. The post Meme Coin Based on White House Shooter Conspiracy Rallies 320%...
    beincrypto.com
    Apr 27, 2026 16:11
    PEPE surges 4% as market sentiment improves, eyes Key resistance breakout
    Key takeaways Pepe extends gains on Wednesday, stretching its rally from the 50-day EMA. Derivatives data show heightened retail activity as risk-on sentiment returns to the market. Pepe (PEPE) is...
    coinjournal.net
    Apr 22, 2026 11:44
    Why The PEPE Price Could Stage A 55X Rally To Reach New $0.0001 ATH
    The PEPE price has now started to edge back into bullish conversations after the recent inflows into the crypto market. The last time PEPE’s weekly chart printed the kind of structure now...
    newsbtc.com
    Apr 21, 2026 15:30
    Pepe (PEPE) surges 9%, drawing interest from whales
    Key takeaways PEPE is up 9% in the last 24 hours, making it one of the best performers among the top 50 cryptocurrencies by market cap. The rally comes amid renewed interest from whales and retail...
    coinjournal.net
    Apr 16, 2026 07:40
    Murad Says SPX6900 (SPX) Is Primed for a Rally — Is He Right This Time?
    Crypto influencer Murad Mahmudov claims SPX6900 (SPX) is stabilizing at the same market cap level where Dogecoin (DOGE) and Pepe (PEPE) consolidated before their explosive rallies. The...
    beincrypto.com
    Apr 5, 2026 21:36
    The Shiba Inu Of This Cycle: Analyst Shares Why It Is Better To Buy PEPE Now
    In the bull market cycle of 2021-2022, the Shiba Inu meme coin made waves in a way that changed the face of meme coins forever. This came after Dogecoin’s initial 36,000% rally, and Shiba Inu...
    newsbtc.com
    Apr 4, 2026 07:30
    PEPE Explodes by 18% Amid Altcoin Rally, BTC Tapped $74K: Market Watch
    The frog-themed meme coin is today's biggest gainer, followed by TAO, DOT, and BONK.
    cryptopotato.com
    Mar 16, 2026 10:56
    Should PEPE traders brace for volatility as short squeeze potential builds?
    The memecoin market has seen its collective market capitalization drop by 48% over the past year, and 6.9% over the past month, according to CoinMarketCap. According to Glassnode, the memecoin...
    ambcrypto.com
    Mar 7, 2026 18:00
    Geben Sie einfach das Kommando im Chat ein. Ersetzen Sie dabei nick1 durch den jeweiligen Nick.
    • /ignore nick1 Einen Chat-User ignorieren
    • /unignore nick1 Einen Chat-User nicht mehr ignorieren
    • /ignorelist Ignorierte Chat-User anzeigen